Regional Weather Roundup
Issued by NWS

Home | Current Version | Previous Version | Graphics & Text | Print | Product List | Glossary On
Versions: 1 2 3 4 5 6 7 8 9 10 11 12 13 14 15 16 17 18 19 20 21 22 23 24 25 26
000
ASUS44 KLIX 121812
RWRLA
LOUISIANA WEATHER ROUNDUP
NATIONAL WEATHER SERVICE NEW ORLEANS LA
1200 PM CST TUE DEC 12 2017

NOTE: "FAIR" INDICATES FEW OR NO CLOUDS BELOW 12,000 FEET WITH NO
      SIGNIFICANT WEATHER AND/OR OBSTRUCTIONS TO VISIBILITY.
      SKY/WX - SKY CONDITION AND SIGNIFICANT WEATHER.
      TMP - AIR TEMPERATURE.    DP   - DEWPOINT TEMPERATURE.
      RH  - RELATIVE HUMIDITY.  PRES - PRESSURE.
      HX  - HEAT INDEX.         WCI  - WIND CHILL INDEX.

*  THESE STATIONS ARE NOT NWS OR FAA STATIONS AND ARE NOT UNDER
   NWS QUALITY CONTROL.

LAZ040-048-061>063-065-066-069-121900-
SOUTHEAST LOUISIANA

CITY           SKY/WX    TMP DP  RH WIND       PRES   REMARKS
N.O. INTL ARPT SUNNY     60  37  42 N13       30.17F
6HR MIN TEMP:  51; 6HR MAX TEMP:  60;

N.O. LAKEFRONT SUNNY     58  45  62 NW10      30.17F
6HR MIN TEMP:  53; 6HR MAX TEMP:  61;

N.O. DOWNTOWN* FAIR      59  35  40 VRB5      30.17F
6HR MIN TEMP:  52; 6HR MAX TEMP:  59;

RESERVE*       FAIR      62  33  32 N12G17    30.17F
6HR MIN TEMP:  51; 6HR MAX TEMP:  63;

SLIDELL        SUNNY     61  33  35 N17G24    30.14F
6HR MIN TEMP:  47; 6HR MAX TEMP:  61;

BATON ROUGE    SUNNY     59  32  36 NW12      30.19F
6HR MIN TEMP:  45; 6HR MAX TEMP:  60;

BOOTHVILLE     SUNNY     59  38  45 N12G20    30.15F
6HR MIN TEMP:  56; 6HR MAX TEMP:  60;

BELLE CHASSE   SUNNY     60  37  42 N10G21    30.15F
6HR MIN TEMP:  47; 6HR MAX TEMP:  60;

BOGALUSA*      NOT AVBL
GALLIANO*      CLEAR     60  31  33 N13G20    30.16F
6HR MIN TEMP:  51; 6HR MAX TEMP:  61;

NEW ROADS*     FAIR      58  32  37 N12       30.20F
6HR MIN TEMP:  43; 6HR MAX TEMP:  59;

GONZALES*      FAIR      60  33  35 N12       30.18F
6HR MIN TEMP:  47; 6HR MAX TEMP:  60;

HAMMOND*       SUNNY     59  34  38 N12G18    30.17F
HOUMA*         NOT AVBL
PORT FOURCHON* CLEAR     59  36  41 N15       30.17F

$$

LAZ041-044-053-054-121900-
SOUTHWEST LOUISIANA

CITY           SKY/WX    TMP DP  RH WIND       PRES   REMARKS
LAKE CHARLES   SUNNY     61  33  35 N16       30.24F
6HR MIN TEMP:  48; 6HR MAX TEMP:  61;

LAFAYETTE      SUNNY     60  33  36 N16       30.21F
6HR MIN TEMP:  46; 6HR MAX TEMP:  61;

PATTERSON      SUNNY     61  36  39 N13       30.19F
6HR MIN TEMP:  49; 6HR MAX TEMP:  61;

SALT POINT       N/A     61  33  35 N10G16    30.18F
6HR MIN TEMP:  50; 6HR MAX TEMP:  62;

NEW IBERIA     SUNNY     61  31  32 N17       30.21F
6HR MIN TEMP:  45; 6HR MAX TEMP:  62;

CHENAULT AIRPK NOT AVBL

$$

LAZ027-028-121900-
CENTRAL LOUISIANA

CITY           SKY/WX    TMP DP  RH WIND       PRES   REMARKS
FORT POLK      SUNNY     58  32  37 NW12      30.25F
6HR MIN TEMP:  43; 6HR MAX TEMP:  58;

ALEXANDRIA INT SUNNY     58  32  37 NW14      30.24F
6HR MIN TEMP:  41; 6HR MAX TEMP:  58;

ALEXANDRIA     SUNNY     59  32  36 NW7       30.23F
6HR MIN TEMP:  42; 6HR MAX TEMP:  59;


$$

LAZ001-002-121900-
NORTHWEST LOUISIANA

CITY           SKY/WX    TMP DP  RH WIND       PRES   REMARKS
SHREVEPORT     SUNNY     56  24  29 N8G17     30.29F
6HR MIN TEMP:  46; 6HR MAX TEMP:  56;

BARKSDALE AFB  SUNNY     55  24  29 NW9       30.29F
6HR MIN TEMP:  38; 6HR MAX TEMP:  56;

DTN SHREVEPORT SUNNY     57  23  26 N9G18     30.30F
6HR MIN TEMP:  45; 6HR MAX TEMP:  57;


$$

LAZ014-016-121900-
NORTHEAST LOUISIANA

CITY           SKY/WX    TMP DP  RH WIND       PRES   REMARKS
MONROE         SUNNY     56  29  35 N10       30.25F
6HR MIN TEMP:  41; 6HR MAX TEMP:  57;

TALLULAH       SUNNY     56  34  43 NW13G20   30.23F
6HR MIN TEMP:  45; 6HR MAX TEMP:  58;


$$





USA.gov is the U.S. government's official web portal to all federal, state and local government web resources and services.